Regional Weather Roundup
Issued by NWS Charleston, SC

Home | Current Version | Previous Version | Text Only | Print | Product List | Glossary On
Versions: 1 2 3 4 5 6 7 8 9 10 11 12 13 14 15 16 17 18 19 20 21 22 23 24 25 26 27 28 29 30 31 32 33 34 35 36 37 38 39 40 41 42 43 44 45 46 47 48 49 50
000
ASUS42 KCHS 221141
RWRCHS

REGIONAL WEATHER ROUNDUP
NATIONAL WEATHER SERVICE CHARLESTON SC
700 AM EDT FRI SEP 22 2017

NOTE: "FAIR" INDICATES FEW OR NO CLOUDS BELOW 12,000 FEET WITH NO
SIGNIFICANT WEATHER AND/OR OBSTRUCTIONS TO VISIBILITY.

NOT ALL STATIONS ARE QUALITY CONTROLLED. USE DATA WITH CAUTION...
ESPECIALLY DEWPOINT OBSERVATIONS.

SCZ027-030-031-034>040-042>050-221200-
...SOUTHEAST SOUTH CAROLINA...

CITY           SKY/WX    TMP DP  RH WIND       PRES   REMARKS
N CHARLESTON   MOCLDY    68  68 100 NE5       30.04R
WATERFRONT PRK   N/A     74  72  93 VRB3      29.87R
JOHNS ISLAND   FAIR      72  72 100 CALM      30.04R FOG
PINOPOLIS        N/A     72  72 100 NE7       29.95R
MONCKS CORNER  FAIR      66  64  94 CALM      30.05R
SUMMERVILLE    FAIR      64  64 100 CALM      30.05S
BEAUFORT MCAS  PTCLDY    70  70 100 N6        30.04R
BEAUFORT ARPT  FAIR      72  72 100 CALM      30.03R FOG
HILTON HEAD IS CLEAR     73  73 100 CALM      30.03R
WALTERBORO     SUNNY     64  64 100 CALM      30.05R
ALLENDALE      NOT AVBL

...SOUTHERN MIDLANDS AND PEE DEE...

CITY           SKY/WX    TMP DP  RH WIND       PRES   REMARKS
GEORGETOWN     FAIR      68  66  94 CALM      30.06R FOG
KINGSTREE      CLOUDY    64  63  94 CALM      30.06R
ORANGEBURG     CLEAR     67  65  93 CALM      30.04R
BARNWELL       FAIR      68  66  94 CALM      30.05R
AIKEN          FAIR      64  64 100 CALM      30.10R
MANNING        FAIR      64  59  82 N3        30.06R HAZE
COLUMBIA       PTCLDY    69  66  90 CALM      30.05R
SUMTER         CLEAR     66  64  92 CALM      30.04R
FLORENCE       CLEAR     66  66 100 CALM      30.06R
MYRTLE BEACH   CLEAR     68  65  90 N7        30.06R
N MYRTLE BEACH CLEAR     68  66  93 N5        30.05R

$$

GAZ063-065-086>088-099>101-113>116-118-119-134>141-150-221200-
...SOUTHEAST GEORGIA...

CITY           SKY/WX    TMP DP  RH WIND       PRES   REMARKS
SAVANNAH ARPT  PTCLDY    70  69  97 CALM      30.03R FOG
HUNTER AAF     CLEAR     72  72 100 CALM      30.00R
FORT STEWART   FOG       70  68  94 CALM      30.01R VSB 1/2
STATESBORO     CLEAR     67  67 100 CALM      30.04R
SYLVANIA       SUNNY     66  66 100 CALM      30.06R FOG
CLAXTON        FAIR      68  67  98 CALM      30.04R FOG

...CSRA...CENTRAL AND FAR SOUTHEAST GEORGIA...

CITY           SKY/WX    TMP DP  RH WIND       PRES   REMARKS
THOMSON        CLEAR     65  64  95 CALM      30.11R
AUGUSTA-BUSH   CLEAR     67  65  93 CALM      30.04R
AUGUSTA-DANIEL CLEAR     71  67  87 E3        30.06R
SWAINSBORO     FAIR      68  68 100 CALM      30.06R
VIDALIA        FOG       70  70 100 CALM      30.04R VSB 1/4
EASTMAN        FAIR      66  66 100 CALM      30.07R FOG
HAZLEHURST     FAIR      71  69  95 CALM      30.03R FOG
ALMA           FOG       68  67  96 CALM      30.02R VSB 1/4
WAYCROSS       FOG       70  67  90 CALM      30.02R VSB 3/4
JESUP          NOT AVBL
BAXLEY         CLOUDY    66  66 100 CALM      30.03R FOG
BRUNSWICK      PTCLDY    72  70  94 N5        30.02R FOG
SAINT SIMONS   CLEAR     76  74  93 N3        29.99S

$$

SCZ027-028-034-036>038-045-046-048>050-GAZ119-141-221200-
...LAKE AND SUPPLEMENTAL COASTAL OBSERVATIONS...

STATION/POSITION TIME  TEMP    WIND        PRES    WAVE   SWELL
                       AIR SEA DIR/SP/G            HT/PER HT/PER/DIR
                 (UTC) (F)     (DEG/KT/KT) (MB)    (FT/S) (FT/S/D)
WINYAH BAY       1045   72      20/  2     1017.0R
LAKE MURRAY      1120   72      80/  2/  4 1017.3
ACE BASIN NERRS  1045   71        CALM     1017.0R
FORT PULASKI     1100   76 80   30/  4/  5 1017.0
SAPELO ISLAND    1100   76        CALM     1016.0

$$

ANZ835-935-AMZ111-154-330-350-352-354-370-450-454-472-221200-
...C-MAN AND BUOY OBSERVATIONS...

STATION/POSITION TIME  TEMP    WIND        PRES    WAVE   SWELL
                       AIR SEA DIR/SP/G            HT/PER HT/PER/DIR
                 (UTC) (F)     (DEG/KT/KT) (MB)    (FT/S) (FT/S/D)
BUOY 41004       1110   79 82   20/  8/ 10 1016.3
BUOY 41008       1050   80 80   50/ 10/ 10 1015.6R   2/10   2/130/10
FOLLY BEACH CMAN 1100   75     360/  6/  7 1017.6R
CAPERS NEARSHORE 1108   74 81   30/  8/ 10 1016.8R
FRIPP NEARSHORE  1108   79      30/  6/  8 1022.0R


STATION/POSITION TIME  TEMP    WIND        PRES    WAVE   SWELL
                       AIR SEA DIR/SP/G            HT/PER HT/PER/DIR
                 (UTC) (F)     (DEG/KT/KT) (MB)    (FT/S) (FT/S/D)
5E ST. MARYS GA  1100      82                N/A     3/10   2/ 90/11
FRYING PAN BUOY  1110   79 82   30/ 10/ 16 1016.7
BUOY 41025       1050   74 76  310/  4/  6 1016.9R   5/12   5/ 80/12
CAPE LOOKOUT NC  1100   76      60/  7/  8 1017.1R
BUOY 41002       1050   77 80   90/  2/  4 1016.3R   6/10   5/ 80/10
BUOY 41010       1110           60/ 14/ 19 1014.1
ST AUGUSTINE FL  1100   81 83   30/ 14/ 14 1014.7R


$$




USA.gov is the U.S. government's official web portal to all federal, state and local government web resources and services.